Location: Unspecified
(27.6555°N, 0.0000°E)
Time: 03:47:44
(UTC+00:00)

S-56A Canister/Altair - All Passes

Search period start: 04 April 2026 00:00
Search period end: 14 April 2026 00:00
Orbit: 632 x 2485 km, 38.9° (Epoch: 28 March)

Date Brightness Start Highest point End Pass type
(mag) Time Alt. Az. Time Alt. Az. Time Alt. Az.
4 Apr - 05:53:48 10° SSW 06:05:42 41° SE 06:19:11 10° ENE daylight
4 Apr - 07:57:13 10° WSW 08:11:43 88° NNW 08:26:18 10° ENE daylight
4 Apr - 10:04:51 10° W 10:19:39 56° NNW 10:32:07 10° ENE daylight
4 Apr - 12:14:10 10° WNW 12:27:58 52° N 12:37:56 10° E daylight
4 Apr - 14:22:17 10° WNW 14:34:36 87° NNE 14:42:34 10° ESE daylight
4 Apr - 16:30:39 10° WNW 16:38:10 26° SW 16:43:42 10° S daylight
5 Apr - 05:19:11 10° SSW 05:30:08 35° SE 05:42:52 10° ENE visible
5 Apr - 07:21:43 10° SW 07:35:44 85° SSE 07:50:38 10° ENE daylight
5 Apr - 09:28:42 10° W 09:43:31 59° NNW 09:56:42 10° ENE daylight
5 Apr - 11:37:50 10° WNW 11:52:02 52° N 12:02:44 10° E daylight
5 Apr - 13:46:08 10° WNW 13:59:11 80° NNE 14:07:47 10° ESE daylight
5 Apr - 15:54:15 10° WNW 16:03:19 34° SW 16:09:42 10° SSE daylight
6 Apr - 04:44:48 10° S 04:54:40 29° SE 05:06:20 10° ENE visible
6 Apr - 06:46:23 10° SW 06:59:48 78° SE 07:14:52 10° ENE daylight
6 Apr - 08:52:41 10° W 09:07:21 62° NNW 09:21:11 10° ENE daylight
6 Apr - 11:01:32 10° WNW 11:16:01 52° N 11:27:26 10° ENE daylight
6 Apr - 13:09:57 10° WNW 13:23:38 73° NNE 13:32:54 10° ESE daylight
6 Apr - 15:17:55 10° WNW 15:28:21 43° SW 15:35:29 10° SSE daylight
7 Apr - 04:10:43 10° S 04:19:19 24° SE 04:29:30 10° E visible
7 Apr - 06:11:13 10° SW 06:23:57 70° SE 06:38:58 10° ENE daylight
7 Apr - 08:16:47 10° W 08:31:11 66° NNW 08:45:34 10° ENE daylight
7 Apr - 10:25:17 10° WNW 10:39:54 52° N 10:52:02 10° ENE daylight
7 Apr - 12:33:46 10° WNW 12:47:57 68° NNE 12:57:55 10° ESE daylight
7 Apr - 14:41:39 10° WNW 14:53:17 52° SW 15:01:08 10° SSE daylight
8 Apr - 03:37:02 10° SSE 03:44:04 18° SE 03:52:15 10° E visible
8 Apr - 05:36:13 10° SW 05:48:12 62° SE 06:02:57 10° ENE daylight
8 Apr - 07:41:03 10° WSW 07:55:02 70° NNW 08:09:53 10° ENE daylight
8 Apr - 09:49:06 10° WNW 10:03:44 53° N 10:16:32 10° ENE daylight
8 Apr - 11:57:35 10° WNW 12:12:08 64° NNE 12:22:48 10° E daylight
8 Apr - 14:05:24 10° WNW 14:18:04 62° SW 14:26:36 10° SE daylight
8 Apr - 16:16:43 10° W 16:20:56 13° WSW 16:24:35 10° SSW daylight
9 Apr - 03:04:08 10° SSE 03:08:54 13° ESE 03:14:12 10° E visible
9 Apr - 05:01:23 10° SSW 05:12:34 55° SE 05:26:49 10° ENE visible
9 Apr - 07:05:29 10° WSW 07:18:56 74° NNW 07:34:05 10° ENE daylight
9 Apr - 09:13:01 10° W 09:27:30 53° N 09:40:56 10° ENE daylight
9 Apr - 11:21:24 10° WNW 11:36:12 61° NNE 11:47:34 10° E daylight
9 Apr - 13:29:11 10° WNW 13:42:44 72° SW 13:51:58 10° SE daylight
9 Apr - 15:39:08 10° W 15:46:04 19° SW 15:51:37 10° SSW daylight
10 Apr - 04:26:43 10° SSW 04:37:04 47° SE 04:50:34 10° ENE visible
10 Apr - 06:30:04 10° WSW 06:42:54 80° NNW 06:58:12 10° ENE daylight
10 Apr - 08:37:02 10° W 08:51:15 55° N 09:05:15 10° ENE daylight
10 Apr - 10:45:16 10° WNW 11:00:10 59° NNE 11:12:13 10° E daylight
10 Apr - 12:53:00 10° WNW 13:07:14 81° SW 13:17:12 10° SE daylight
10 Apr - 15:02:09 10° W 15:11:07 25° SW 15:17:57 10° S daylight
11 Apr - 03:52:14 10° SSW 04:01:41 39° SE 04:14:10 10° ENE visible
11 Apr - 05:54:47 10° WSW 06:06:57 86° NNW 06:22:14 10° ENE daylight
11 Apr - 08:01:11 10° W 08:15:00 56° N 08:29:27 10° ENE daylight
11 Apr - 10:09:11 10° WNW 10:24:03 57° N 10:36:44 10° E daylight
11 Apr - 12:16:51 10° WNW 12:31:36 89° SW 12:42:17 10° ESE daylight
11 Apr - 14:25:27 10° WNW 14:36:04 32° SW 14:43:57 10° S daylight
12 Apr - 03:17:56 10° S 03:26:26 32° SE 03:37:37 10° ENE visible
12 Apr - 05:19:40 10° SW 05:31:07 87° SSE 05:46:12 10° ENE daylight
12 Apr - 07:25:27 10° W 07:38:47 58° NNW 07:53:33 10° ENE daylight
12 Apr - 09:33:11 10° WNW 09:47:51 55° N 10:01:07 10° E daylight
12 Apr - 11:40:45 10° WNW 11:55:50 84° NNE 12:07:14 10° ESE daylight
12 Apr - 13:48:54 10° WNW 14:00:54 39° SW 14:09:42 10° SSE daylight
13 Apr - 02:43:53 10° S 02:51:18 26° SE 03:00:53 10° E visible
13 Apr - 04:44:41 10° SW 04:55:24 79° SE 05:10:06 10° ENE visible
13 Apr - 06:49:52 10° W 07:02:37 60° NNW 07:17:35 10° ENE daylight
13 Apr - 08:57:15 10° WNW 09:11:36 54° N 09:25:24 10° E daylight
13 Apr - 11:04:42 10° WNW 11:19:57 78° NNE 11:32:03 10° ESE daylight
13 Apr - 13:12:30 10° WNW 13:25:37 47° SW 13:35:16 10° SSE daylight
